{"data":{"norad_id":43256,"intl_designator":"2018-030H","name":"IRIDIUM 142","alt_names":[],"object_type":"PAYLOAD","status":"ACTIVE","operator":null,"country":"US","launch_date":"2018-03-30","launch_site_code":"AFWTR","launch_vehicle":null,"mission":null,"orbit_class":"UNKNOWN","rcs_meters":null,"size_class":null,"mass_kg":null,"dimensions":null,"purposes":["comms"],"wikipedia_slug":null,"has_3d_model":false,"image_url":null,"decayed_at":null,"tle_current":{"epoch":"2026-05-25T03:44:59.718336Z","epoch_age_seconds":68527,"freshness":"FRESH","line1":"1 43256U 18030H   26145.15624674  .00000218  00000+0  70632-4 0  9997","line2":"2 43256  86.3936 299.9835 0001981  89.4100 270.7322 14.34219163426833","mean_motion":14.34219163,"eccentricity":0.0001981,"inclination_deg":86.3936,"raan_deg":299.9835,"arg_perigee_deg":89.41,"mean_anomaly_deg":270.7322,"bstar":7.0632e-5,"rev_number":42683,"period_min":100.40306510672,"perigee_km":776.24489052441,"apogee_km":779.08001826824,"semimajor_km":7155.7994543963,"source":"CELESTRAK","updated_at":"2026-05-25T13:38:14.808905Z"}}}